星链-36411(STARLINK-36411)

导读

STARLINK-36411是美国太空探索技术公司SpaceX星链星座的成员,于2026年1月29日发射升空。星链项目旨在构建全球卫星互联网星座,为全球偏远地区、海洋航空等场景提供高速低延迟宽带网络服务,该卫星的入轨进一步扩充了星链星座的运营规模,提升星座服务覆盖能力与网络容量。

Basic Information
目录编号:
67608
目录名称:
STARLINK-36411
国际标识:
2026-018V
轨道中心:
EARTH
卫星名称:
星链-36411
卫星全名:
星链-36411(STARLINK-36411)
卫星状态:
在轨 (已飞行219 天)
发射日期:
2026-01-29 UTC
国别 :
美国 (US)
星等 :
--
Orbit Information
数据来源 国际轨道数据
星历时间: 2026-09-04T23:06:41+0800
19小时前
查看轨道信息
半长轴: 6843.681km
偏心率: 0.0000651
轨道倾角: 97.285°
近地点辐角 144.257°
升交点赤经 311.245°
平近点角 215.871°
近地点: 465.098km
远地点: 465.99km
周期: 93.906分钟
每日圈数: 15.334449
Detailed Information
固有亮度:
5
最大亮度:
2.5
卫星平台:
Starlink V1.0
覆盖范围:
全球
运营商:
太空探索技术公司
运营商所在国:
美国
制造商(研发单位):
太空探索技术公司
制造商所在国:
美国
使用方式:
暂无
Satellite Introduction
Starlink 计划是 SpaceX 推出的全球卫星互联网项目,通过发射低轨道卫星,为全球尤其是偏远地区提供高速、低延迟的互联网服务。自 2019 年起,Starlink 已部署数千颗卫星,旨在缩小全球数字鸿沟,推动互联网普及。该项目还为军事、航空等行业提供通信支持,带来广泛经济效益。
2D Orbit Map
3D Orbit Map
Orbit Altitude Analysis Chart
Orbit Inclination Analysis Chart
Orbit Comprehensive Analysis Chart
View Comprehensive Chart
Conjunction Data List
Event ID Objects TCA Miss Dist (km) Collision Risk Probability Collision Risk Index (CRI) Action
CDM_260907-041004-791606-760822
2026-09-07T
04:10:06+0000
0.601 km
远距离
1.305836E-4 高风险 0.77
CDM_260903-130603-423006-760822
2026-09-03T
13:06:38+0000
1.353 km
极远距离
6.45876E-6 低风险 0.51
CDM_260907-084805-371906-760821
2026-09-07T
08:48:51+0000
2.665 km
极远距离
1.570483E-6 低风险 0.39
CDM_260907-080105-371906-760821
2026-09-07T
08:01:53+0000
2.774 km
极远距离
1.479352E-6 低风险 0.38
CDM_260905-181805-327706-760821
2026-09-05T
18:18:27+0000
2.801 km
极远距离
1.400644E-6 低风险 0.38
CDM_260906-051806-371006-760821
2026-09-06T
05:18:14+0000
2.881 km
极远距离
1.378708E-6 低风险 0.38
CDM_260906-192304-603606-760821
2026-09-06T
19:23:08+0000
2.952 km
极远距离
9.784826E-7 极低风险 0.35